This demonstration page uses our WeatherBlox Daily Observations layout. Learn more.

Left ArrowRight Arrow

39.12711, -84.51439

Hourly Observations for September 11, 2016

Temp ( °F °C ) Dew Point ( °F °C ) Humidity (%) Winds ( mph kmh ) Pressure ( in mb ) Visibility ( mi km ) Precip ( " mm )
12:53 am 00:53 Clear 64 17.8 61 16.1 90 90 Calm 30.08 1019 10 16 0.00 0.00
1:53 am 01:53 Clear 61 16.1 61 16.1 100 100 Calm 30.10 1019 10 16 0.00 0.00
2:51 am 02:51 Clear with Mist and Fog 61 16 61 16 100 100 Calm 30.09 1019 2 3 0.00 0.00
2:53 am 02:53 Clear with Mist and Fog 60 15.6 60 15.6 100 100 Calm 30.10 1019 1 2 0.00 0.00
3:03 am 03:03 Clear with Mist and Fog 61 16 61 16 100 100 Calm 30.09 1019 3 5 0.00 0.00
3:53 am 03:53 Clear 60 15.6 59 15 96 96 WNW 7 11 30.10 1019 10 16 0.00 0.00
4:53 am 04:53 Clear 59 15 58 14.4 96 96 Calm 30.12 1020 10 16 0.00 0.00
5:28 am 05:28 Mostly Clear 59 15 57 14 94 94 Calm 30.15 1021 10 16 0.00 0.00
5:53 am 05:53 Mostly Clear 59 15 57 13.9 93 93 Calm 30.14 1021 10 16 0.00 0.00
6:53 am 06:53 Clear 57 13.9 57 13.9 100 100 Calm 30.17 1022 9 14 0.00 0.00
7:53 am 07:53 Sunny 57 13.9 57 13.9 100 100 Calm 30.19 1022 9 14 0.00 0.00
8:53 am 08:53 Sunny 62 16.7 59 15 90 90 Calm 30.20 1023 10 16 0.00 0.00
9:53 am 09:53 Sunny 66 18.9 60 15.6 81 81 VRB 7 11 30.22 1023 10 16 0.00 0.00
10:53 am 10:53 Sunny 68 20 59 15 73 73 Calm 30.23 1024 10 16 0.00 0.00
11:53 am 11:53 Sunny 72 22.2 59 15 64 64 NE 7 11 30.23 1024 10 16 0.00 0.00
12:53 pm 12:53 Partly Cloudy 74 23.3 58 14.4 57 57 E 6 9 30.22 1023 10 16 0.00 0.00
1:53 pm 13:53 Partly Cloudy 74 23.3 58 14.4 57 57 Calm 30.21 1023 10 16 0.00 0.00
2:53 pm 14:53 Mostly Cloudy 76 24.4 56 13.3 50 50 VRB 3 6 30.19 1022 10 16 0.00 0.00
3:53 pm 15:53 Partly Cloudy 76 24.4 55 12.8 48 48 Calm 30.18 1022 10 16 0.00 0.00
4:53 pm 16:53 Partly Cloudy 76 24.4 56 13.3 50 50 WNW 6 9 30.16 1022 10 16 0.00 0.00
5:53 pm 17:53 Mostly Sunny 76 24.4 54 12.2 47 47 VRB 3 6 30.15 1021 10 16 0.00 0.00
6:53 pm 18:53 Mostly Sunny 74 23.3 55 12.8 52 52 NE 5 7 30.15 1021 10 16 0.00 0.00
7:53 pm 19:53 Mostly Clear 65 18.3 61 16.1 87 87 Calm 30.16 1021 10 16 0.00 0.00
8:53 pm 20:53 Clear 61 16.1 60 15.6 97 97 Calm 30.16 1022 10 16 0.00 0.00
9:53 pm 21:53 Clear 60 15.6 59 15 96 96 Calm 30.18 1022 10 16 0.00 0.00
10:53 pm 22:53 Clear 59 15 59 15 100 100 Calm 30.18 1022 10 16 0.00 0.00
11:53 pm 23:53 Clear 58 14.4 58 14.4 100 100 Calm 30.18 1022 10 16 0.00 0.00

Powered by AerisWeather